Location: Unspecified
(41.5516°N, 88.1098°W)
Time: 04:27:53
(UTC-05:00)

HST - Visible Passes

Search period start: 25 October 2014 00:00
Search period end: 03 November 2014 23:00
Orbit: 546 x 550 km, 28.5° (Epoch: 24 October)

Date Brightness Start Highest point End Pass type
(mag) Time Alt. Az. Time Alt. Az. Time Alt. Az.
26 Oct 3.3 19:43:01 10° S 19:43:54 11° S 19:43:54 11° S visible
27 Oct 3.1 19:35:00 10° SSW 19:36:37 12° S 19:37:03 12° SSE visible
28 Oct 3.1 19:27:15 10° SSW 19:29:10 13° S 19:30:11 12° SSE visible
29 Oct 3.1 19:19:39 10° SSW 19:21:43 13° S 19:23:18 11° SSE visible
30 Oct 3.2 19:12:10 10° SSW 19:14:16 14° S 19:16:21 10° SSE visible
31 Oct 3.2 19:04:46 10° SSW 19:06:48 13° S 19:08:50 10° SSE visible
01 Nov 3.3 18:57:29 10° SSW 18:59:19 13° S 19:01:10 10° SSE visible
02 Nov 3.4 17:50:21 10° SSW 17:51:50 12° S 17:53:20 10° SSE visible
03 Nov 3.6 17:43:35 10° SSW 17:44:20 10° SSW 17:45:06 10° S visible
